"Timestamp","TZ","WindDir_Mean (deg)","WindSpd_Mean (km/h)","WindSpd_Min (km/h)","WindSpd_Max (km/h)","Temp_Mean (deg)","RH_Mean (%)","MSLP_Mean (hPa)","Rain_Acc (mm)","Rain_Intensity (mm/h)","Hail_Acc (hits/cm2)","Hail_Intensity (hits/cm2hr)","Solar_Mean (W/m2)"
2023/02/24 00:00:00.005,n,180,6.84,4.32,10.440002,21.6,65.699996,1017.22,0,0,0,0,0.02697
2023/02/24 00:01:00.001,n,148,3.6,1.44,4.68,21.5,66.800004,1017.12,0,0,0,0,0.026131
2023/02/24 00:02:00.001,n,194,5.76,3.6,9.72,21.6,65.800004,1017.12,0,0,0,0,0.027847
2023/02/24 00:03:00.001,n,170,6.48,4.68,10.08,21.5,65.800004,1017.12,0,0,0,0,0.027847
2023/02/24 00:04:00.001,n,216,5.76,4.68,8.64,21.5,66,1017.02,0,0,0,0,0.031357
2023/02/24 00:05:00.010,n,173,5.04,3.6,7.56,21.5,65.9,1017.02,0,0,0,0,0.028725
2023/02/24 00:06:00.007,n,184,5.4,1.44,9,21.5,65.9,1017.02,0,0,0,0,0.024376
2023/02/24 00:07:00.008,n,168,6.12,4.68,6.48,21.5,66,1017.02,0,0,0,0,0.024376
2023/02/24 00:08:00.010,n,185,5.76,3.24,7.92,21.5,66,1016.92,0,0,0,0,0.023499
2023/02/24 00:09:00.011,n,179,5.4,3.6,8.64,21.5,66.1,1016.92,0,0,0,0,0.028725
2023/02/24 00:10:00.001,n,187,5.04,2.16,7.92,21.5,66.300004,1016.92,0,0,0,0,0.023499
2023/02/24 00:11:00.001,n,195,2.88,2.16,6.84,21.5,66.300004,1016.92,0,0,0,0,0.023499
2023/02/24 00:12:00.002,n,197,5.4,3.24,8.64,21.5,66.6,1016.82,0,0,0,0,0.024376
2023/02/24 00:13:00.003,n,115,5.4,3.96,6.48,21.5,66.4,1016.82,0,0,0,0,0.02697
2023/02/24 00:14:00.007,n,178,3.24,2.88,3.6,21.4,66.6,1016.82,0,0,0,0,0.022621
2023/02/24 00:15:00.009,n,214,2.16,0.72,3.24,21.4,66.699996,1016.82,0,0,0,0,0.022621
2023/02/24 00:16:00.012,n,211,1.08,0.36,1.8,21.4,66.699996,1016.82,0,0,0,0,0.023499
2023/02/24 00:17:00.015,n,167,10.440002,6.48,13.68,21.4,66.6,1016.82,0,0,0,0,0.025253
2023/02/24 00:18:00.006,n,157,4.32,3.6,5.04,21.4,66.6,1016.82,0,0,0,0,0.023499
2023/02/24 00:19:00.002,n,189,3.96,1.8,6.12,21.4,66.5,1016.72,0,0,0,0,0.022621
2023/02/24 00:20:00.001,n,206,3.6,3.24,4.32,21.4,66.6,1016.82,0,0,0,0,0.022621
2023/02/24 00:21:00.002,n,150,5.4,4.68,5.76,21.4,66.699996,1016.82,0,0,0,0,0.023499
2023/02/24 00:22:00.001,n,149,6.12,4.68,6.84,21.4,66.699996,1016.82,0,0,0,0,0.022621
2023/02/24 00:23:00.002,n,191,4.32,3.6,6.48,21.4,66.5,1016.82,0,0,0,0,0.017395
2023/02/24 00:24:00.002,n,186,8.28,6.48,10.08,21.4,66.4,1016.72,0,0,0,0,0.02346
2023/02/24 00:25:00.005,n,190,10.440002,8.64,14.76,21.4,66.300004,1016.72,0,0,0,0,0.024338
2023/02/24 00:26:00.007,n,191,11.88,9,13.68,21.4,66.199996,1016.72,0,0,0,0,0.024338
2023/02/24 00:27:00.009,n,182,10.08,5.76,15.12,21.4,66.199996,1016.72,0,0,0,0,0.02346
2023/02/24 00:28:00.001,n,150,5.4,3.24,7.92,21.4,66.300004,1016.72,0,0,0,0,0.02697
2023/02/24 00:29:00.002,n,173,6.84,3.24,7.56,21.4,66.5,1016.82,0,0,0,0,0.022621
2023/02/24 00:30:00.004,n,152,1.8,0.36,6.84,21.4,66.4,1016.82,0,0,0,0,0.024338
2023/02/24 00:31:00.006,n,179,6.48,4.68,10.440002,21.4,66.300004,1016.82,0,0,0,0,0.021744
2023/02/24 00:32:00.009,n,201,12.24,11.16,12.96,21.4,66.1,1016.82,0,0,0,0,0.021744
2023/02/24 00:33:00.010,n,181,11.52,8.64,14.4,21.4,66.300004,1016.82,0,0,0,0,0.022621
2023/02/24 00:34:00.015,n,167,11.88,9.72,16.2,21.4,66.1,1016.82,0,0,0,0,0.021744
2023/02/24 00:35:00.003,n,169,11.16,6.12,13.68,21.4,66.199996,1016.82,0,0,0,0,0.02346
2023/02/24 00:36:00.007,n,155,9.36,5.76,14.04,21.4,66.1,1016.82,0,0,0,0,0.021744
2023/02/24 00:37:00.002,n,170,11.88,6.12,14.04,21.4,66.199996,1016.82,0,0,0,0,0.024338
2023/02/24 00:38:00.002,n,180,4.32,3.24,5.76,21.4,66.1,1016.72,0,0,0,0,0.020866
2023/02/24 00:39:00.001,n,183,8.28,4.68,12.24,21.4,66.199996,1016.72,0,0,0,0,0.021744
2023/02/24 00:40:00.004,n,11,1.08,0,5.76,21.4,66.300004,1016.72,0,0,0,0,0.021744
2023/02/24 00:41:00.002,n,187,12.24,10.08,15.12,21.4,66.300004,1016.62,0,0,0,0,0.020866
2023/02/24 00:42:00.001,n,179,11.16,8.28,15.12,21.3,66.199996,1016.62,0,0,0,0,0.01915
2023/02/24 00:43:00.002,n,190,7.56,6.48,8.64,21.3,66.300004,1016.62,0,0,0,0,0.01915
2023/02/24 00:44:00.005,n,166,8.64,5.4,12.6,21.3,66.300004,1016.62,0,0,0,0,0.016518
2023/02/24 00:45:00.008,n,160,9,2.52,11.88,21.3,66.4,1016.62,0,0,0,0,0.017395
2023/02/24 00:46:00.001,n,185,8.28,4.68,11.52,21.3,66.1,1016.62,0,0,0,0,0.018272
2023/02/24 00:47:00.002,n,191,9.72,8.28,13.68,21.3,66.1,1016.52,0,0,0,0,0.015678
2023/02/24 00:48:00.001,n,175,12.6,8.28,14.4,21.3,66.300004,1016.52,0,0,0,0,0.016518
2023/02/24 00:49:00.001,n,217,7.2,5.76,8.28,21.3,66.199996,1016.52,0,0,0,0,0.020027
2023/02/24 00:50:00.001,n,176,9,5.04,11.16,21.3,66.300004,1016.42,0,0,0,0,0.020866
2023/02/24 00:51:00.009,n,184,3.24,2.16,5.4,21.3,66.300004,1016.42,0,0,0,0,0.02346
2023/02/24 00:52:00.012,n,158,7.56,5.04,11.88,21.3,66.4,1016.42,0,0,0,0,0.029564
2023/02/24 00:53:00.015,n,235,3.96,1.8,4.68,21.3,66.5,1016.42,0,0,0,0,0.031319
2023/02/24 00:54:00.025,n,189,2.52,2.16,6.84,21.3,66.5,1016.32,0,0,0,0,0.033073
2023/02/24 00:55:00.001,n,195,2.88,2.16,5.04,21.3,66.5,1016.32,0,0,0,0,0.03479
2023/02/24 00:56:00.001,n,38,0.36,0.36,0.72,21.3,66.6,1016.32,0,0,0,0,0.037422
2023/02/24 00:57:00.004,n,168,14.04,10.08,17.64,21.3,66.4,1016.32,0,0,0,0,0.037422
2023/02/24 00:58:00.002,n,206,5.4,4.68,8.28,21.3,66.4,1016.32,0,0,0,0,0.039139
2023/02/24 00:59:00.006,n,171,8.64,4.32,13.32,21.3,66.5,1016.32,0,0,0,0,0.040894
2023/02/24 01:00:00.007,n,157,3.6,3.24,3.96,21.3,66.5,1016.42,0,0,0,0,0.040894
2023/02/24 01:01:00.015,n,192,6.84,3.96,9.72,21.3,66.4,1016.42,0,0,0,0,0.043488
2023/02/24 01:02:00.007,n,166,8.64,4.68,12.24,21.3,66.4,1016.42,0,0,0,0,0.02697
2023/02/24 01:03:00.004,n,190,10.440002,8.28,12.24,21.3,66.4,1016.42,0,0,0,0,0.033913
2023/02/24 01:04:00.001,n,203,9.72,7.56,11.16,21.3,66.5,1016.42,0,0,0,0,0.030403
2023/02/24 01:05:00.002,n,173,9.36,6.12,12.6,21.3,66.300004,1016.42,0,0,0,0,0.033035
2023/02/24 01:06:00.007,n,194,12.6,11.16,14.4,21.3,66.4,1016.42,0,0,0,0,0.04261
2023/02/24 01:07:00.001,n,208,10.440002,7.92,15.48,21.3,66.4,1016.42,0,0,0,0,0.041771
2023/02/24 01:08:00.008,n,197,8.64,6.48,11.52,21.3,66.300004,1016.42,0,0,0,0,0.041771
2023/02/24 01:09:00.004,n,201,8.64,7.2,11.16,21.3,66.199996,1016.42,0,0,0,0,0.039139
2023/02/24 01:10:00.002,n,176,10.440002,7.2,12.24,21.3,66.199996,1016.42,0,0,0,0,0.04261
2023/02/24 01:11:00.010,n,174,13.32,9.36,15.48,21.3,66.199996,1016.42,0,0,0,0,0.043488
2023/02/24 01:12:00.011,n,181,10.8,7.56,11.88,21.3,66.1,1016.42,0,0,0,0,0.043488
2023/02/24 01:13:00.001,n,208,4.68,3.24,7.2,21.3,66.300004,1016.52,0,0,0,0,0.043488
2023/02/24 01:14:00.002,n,205,8.28,5.4,12.24,21.3,66.300004,1016.52,0,0,0,0,0.046959
2023/02/24 01:15:00.001,n,157,6.12,1.44,11.52,21.3,66.300004,1016.52,0,0,0,0,0.051308
2023/02/24 01:16:00.002,n,171,7.92,4.68,11.52,21.3,66.4,1016.52,0,0,0,0,0.047836
2023/02/24 01:17:00.002,n,174,11.16,6.12,13.32,21.3,66.199996,1016.52,0,0,0,0,0.048714
2023/02/24 01:18:00.004,n,150,5.76,5.04,7.2,21.3,66.4,1016.52,0,0,0,0,0.048714
2023/02/24 01:19:00.003,n,180,12.6,11.16,16.2,21.2,66.4,1016.42,0,0,0,0,0.052147
2023/02/24 01:20:00.001,n,251,1.08,0.36,2.88,21.2,66.5,1016.52,0,0,0,0,0.053062
2023/02/24 01:21:00.027,n,162,3.6,1.44,6.12,21.2,66.4,1016.42,0,0,0,0,0.019188
2023/02/24 01:22:00.002,n,182,14.4,10.08,16.56,21.2,66.4,1016.42,0,0,0,0,0.02697
2023/02/24 01:23:00.002,n,186,12.24,9,16.919998,21.2,66.4,1016.42,0,0,0,0,0.034828
2023/02/24 01:24:00.002,n,183,9.36,7.56,14.04,21.2,66.5,1016.42,0,0,0,0,0.025253
2023/02/24 01:25:00.003,n,210,5.76,5.04,7.56,21.2,66.6,1016.42,0,0,0,0,0.027847
2023/02/24 01:26:00.002,n,168,10.8,7.2,12.6,21.2,66.800004,1016.42,0,0,0,0,0.033073
2023/02/24 01:27:00.001,n,184,5.4,3.24,8.64,21.2,66.699996,1016.42,0,0,0,0,0.028763
2023/02/24 01:28:00.013,n,199,6.12,4.68,8.64,21.2,66.800004,1016.42,0,0,0,0,0.029602
2023/02/24 01:29:00.022,n,176,9.72,8.28,15.12,21.2,66.800004,1016.32,0,0,0,0,0.033073
2023/02/24 01:30:00.017,n,173,9.36,5.4,15.84,21.2,66.699996,1016.32,0,0,0,0,0.029602
2023/02/24 01:31:00.001,n,173,11.16,9,14.04,21.2,66.800004,1016.32,0,0,0,0,0.032196
2023/02/24 01:32:00.001,n,182,6.84,3.6,9,21.2,66.699996,1016.32,0,0,0,0,0.033989
2023/02/24 01:33:00.003,n,171,3.96,2.16,7.56,21.2,66.800004,1016.32,0,0,0,0,0.032196
2023/02/24 01:34:00.006,n,150,4.68,2.16,6.84,21.2,67.5,1016.32,0,0,0,0,0.034828
2023/02/24 01:35:00.017,n,177,5.04,2.16,7.92,21.2,67,1016.32,0,0,0,0,0.034828
2023/02/24 01:36:00.001,n,116,2.52,1.44,6.48,21.2,66.800004,1016.22,0,0,0,0,0.031357
2023/02/24 01:37:00.014,n,168,11.16,8.64,14.04,21.2,66.9,1016.22,0,0,0,0,0.033989
2023/02/24 01:38:00.011,n,175,7.92,3.6,9.36,21.2,66.800004,1016.22,0,0,0,0,0.032196
2023/02/24 01:39:00.008,n,228,8.64,7.56,10.08,21.2,66.800004,1016.22,0,0,0,0,0.032196
2023/02/24 01:40:00.001,n,148,3.6,1.08,7.2,21.2,66.9,1016.22,0,0,0,0,0.039177
2023/02/24 01:41:00.002,n,184,10.440002,7.2,13.32,21.2,67,1016.22,0,0,0,0,0.036583
2023/02/24 01:42:00.002,n,179,8.64,5.4,10.08,21.2,66.9,1016.22,0,0,0,0,0.034828
2023/02/24 01:43:00.006,n,171,5.04,3.6,8.28,21.2,67,1016.22,0,0,0,0,0.036583
2023/02/24 01:44:00.004,n,185,9,5.4,10.08,21.2,67.1,1016.22,0,0,0,0,0.036583
2023/02/24 01:45:00.005,n,180,6.48,2.16,8.64,21.2,67,1016.22,0,0,0,0,0.037422
2023/02/24 01:46:00.002,n,261,8.28,6.48,9.72,21.2,67,1016.22,0,0,0,0,0.039177
2023/02/24 01:47:00.011,n,179,15.12,10.08,21.24,21.2,66.9,1016.22,0,0,0,0,0.0383
2023/02/24 01:48:00.015,n,177,3.96,1.44,9,21.1,67.1,1016.22,0,0,0,0,0.036583
2023/02/24 01:49:00.002,n,177,13.68,7.2,19.08,21.1,67.2,1016.22,0,0,0,0,0.041771
2023/02/24 01:50:00.001,n,68,1.44,0.36,2.52,21.1,67.2,1016.22,0,0,0,0,0.040932
2023/02/24 01:51:00.005,n,189,3.96,2.16,8.28,21.1,67.2,1016.22,0,0,0,0,0.0383
2023/02/24 01:52:00.001,n,167,18.359998,14.4,22.68,21.1,67.3,1016.22,0,0,0,0,0.0383
2023/02/24 01:53:00.006,n,175,12.24,7.2,14.4,21.1,67.4,1016.22,0,0,0,0,0.040932
2023/02/24 01:54:00.001,n,194,7.92,3.6,11.16,21.1,67.5,1016.12,0,0,0,0,0.044365
2023/02/24 01:55:00.014,n,184,8.28,5.04,12.24,21.1,67.5,1016.12,0,0,0,0,0.044365
2023/02/24 01:56:00.019,n,173,14.76,10.8,18,21.1,67.5,1016.12,0,0,0,0,0.042648
2023/02/24 01:57:00.011,n,163,3.24,2.16,3.96,21.1,67.6,1016.12,0,0,0,0,0.044365
2023/02/24 01:58:00.010,n,205,6.48,5.76,8.28,21.1,67.6,1016.12,0,0,0,0,0.042648
2023/02/24 01:59:00.004,n,207,14.04,12.24,15.12,21.1,67.6,1016.12,0,0,0,0,0.04528
2023/02/24 02:00:00.002,n,188,2.16,1.08,3.6,21.1,67.6,1016.02,0,0,0,0,0.043526
2023/02/24 02:01:00.006,n,175,8.64,5.4,11.52,21.1,67.8,1016.02,0,0,0,0,0.040054
2023/02/24 02:02:00.003,n,181,6.48,3.24,9.36,21.1,67.8,1016.02,0,0,0,0,0.040932
2023/02/24 02:03:00.009,n,174,17.28,14.04,20.519998,21.1,67.8,1016.02,0,0,0,0,0.046997
2023/02/24 02:04:00.021,n,173,7.2,1.44,8.64,21.1,67.8,1016.02,0,0,0,0,0.039177
2023/02/24 02:05:00.013,n,167,6.12,0.72,11.88,21.1,67.9,1016.02,0,0,0,0,0.042648
2023/02/24 02:06:00.013,n,138,3.24,1.08,5.4,21.1,67.9,1016.02,0,0,0,0,0.041771
2023/02/24 02:07:00.001,n,172,2.16,0.72,4.68,21.1,68.4,1016.02,0,0,0,0,0.044365
2023/02/24 02:08:00.001,n,179,15.84,12.24,17.64,21.1,68,1016.02,0,0,0,0,0.041771
2023/02/24 02:09:00.001,n,234,4.68,3.24,5.04,21.1,68,1016.02,0,0,0,0,0.048752
2023/02/24 02:10:00.001,n,167,4.68,4.32,5.04,21.1,68.1,1016.02,0,0,0,0,0.044365
2023/02/24 02:11:00.001,n,211,10.440002,8.64,12.24,21.1,68.1,1016.02,0,0,0,0,0.04528
2023/02/24 02:12:00.021,n,223,6.48,6.12,8.28,21.1,68.1,1016.02,0,0,0,0,0.043526
2023/02/24 02:13:00.004,n,157,9,5.76,12.6,21.1,68.1,1015.92,0,0,0,0,0.048752
2023/02/24 02:14:00.005,n,172,14.4,9.36,17.64,21.1,68,1015.92,0,0,0,0,0.041771
2023/02/24 02:15:00.015,n,177,8.28,2.88,11.88,21.1,68.1,1015.92,0,0,0,0,0.046158
2023/02/24 02:16:00.002,n,117,2.88,1.44,5.04,21.1,68.1,1015.92,0,0,0,0,0.044365
2023/02/24 02:17:00.001,n,199,12.6,10.8,13.68,21.1,68.1,1015.92,0,0,0,0,0.046158
2023/02/24 02:18:00.001,n,204,5.76,4.32,7.56,21.1,68.2,1015.92,0,0,0,0,0.046158
2023/02/24 02:19:00.004,n,176,11.16,7.2,13.68,21.1,68.2,1015.92,0,0,0,0,0.042648
2023/02/24 02:20:00.002,n,165,4.68,2.16,9,21.1,68.3,1015.92,0,0,0,0,0.044365
2023/02/24 02:21:00.003,n,178,11.88,5.4,13.68,21.1,68.2,1015.82,0,0,0,0,0.04528
2023/02/24 02:22:00.003,n,182,10.440002,7.2,13.68,21.1,68.2,1015.82,0,0,0,0,0.04528
2023/02/24 02:23:00.004,n,166,11.16,9.72,16.919998,21.1,68.2,1015.82,0,0,0,0,0.04528
2023/02/24 02:24:00.014,n,211,8.28,6.84,9.36,21.1,68.3,1015.82,0,0,0,0,0.046997
2023/02/24 02:25:00.002,n,172,6.84,5.04,10.440002,21.1,68.4,1015.82,0,0,0,0,0.019112
2023/02/24 02:26:00.012,n,195,5.04,2.52,9,21,68.6,1015.92,0,0,0,0,0.027847
2023/02/24 02:27:00.005,n,223,2.52,1.08,3.6,21,68.7,1015.92,0,0,0,0,0.029564
2023/02/24 02:28:00.001,n,160,5.4,1.8,9.36,21,68.7,1015.92,0,0,0,0,0.028687
2023/02/24 02:29:00.002,n,157,7.56,7.2,8.64,21,68.8,1015.92,0,0,0,0,0.027847
2023/02/24 02:30:00.003,n,177,9,4.32,13.32,21,69,1015.92,0,0,0,0,0.025215
2023/02/24 02:31:00.009,n,132,4.32,1.08,7.56,21,69,1015.92,0,0,0,0,0.029564
2023/02/24 02:32:00.011,n,70,1.08,0,2.52,21,69.1,1015.92,0,0,0,0,0.029564
2023/02/24 02:33:00.004,n,173,2.88,1.08,5.04,21,69.1,1015.92,0,0,0,0,0.028687
2023/02/24 02:34:00.004,n,131,6.12,5.04,7.2,21,69.1,1015.92,0,0,0,0,0.027847
2023/02/24 02:35:00.002,n,146,5.4,5.4,6.12,21,69.2,1015.92,0,0,0,0,0.029564
2023/02/24 02:36:00.001,n,190,12.96,10.8,18,21,69.1,1015.92,0,0,0,0,0.030441
2023/02/24 02:37:00.002,n,128,4.32,3.96,5.04,21,69.3,1015.92,0,0,0,0,0.030441
2023/02/24 02:38:00.009,n,202,9,7.56,11.52,21,69.2,1015.92,0,0,0,0,0.027847
2023/02/24 02:39:00.007,n,207,7.56,6.48,11.52,21,69.4,1016.02,0,0,0,0,0.02697
2023/02/24 02:40:00.007,n,134,2.52,2.16,2.88,21,69.4,1016.02,0,0,0,0,0.030441
2023/02/24 02:41:00.007,n,182,8.28,3.96,11.52,21,69.4,1016.02,0,0,0,0,0.030441
2023/02/24 02:42:00.005,n,157,9.36,7.2,15.12,21,69.5,1016.02,0,0,0,0,0.02697
2023/02/24 02:43:00.001,n,139,4.68,3.96,5.4,21,69.6,1016.02,0,0,0,0,0.030441
2023/02/24 02:44:00.001,n,209,10.8,8.64,12.96,21,69.5,1016.02,0,0,0,0,0.031319
2023/02/24 02:45:00.002,n,177,9.36,7.56,12.24,21,69.5,1016.02,0,0,0,0,0.027847
2023/02/24 02:46:00.011,n,185,2.16,0.72,5.4,21,69.5,1016.02,0,0,0,0,0.031319
2023/02/24 02:47:00.007,n,150,7.2,6.12,9.36,21,69.5,1016.02,0,0,0,0,0.028687
2023/02/24 02:48:00.001,n,181,6.84,3.24,10.8,21,69.5,1016.02,0,0,0,0,0.028687
2023/02/24 02:49:00.010,n,162,5.4,4.32,6.12,21,69.6,1016.02,0,0,0,0,0.027847
2023/02/24 02:50:00.003,n,193,6.48,3.6,10.08,21,69.7,1016.02,0,0,0,0,0.028687
2023/02/24 02:51:00.009,n,141,7.2,6.84,7.56,21,69.7,1016.12,0,0,0,0,0.027847
2023/02/24 02:52:00.001,n,155,5.76,4.68,9.72,21,69.8,1016.12,0,0,0,0,0.030441
2023/02/24 02:53:00.001,n,186,9.72,7.92,13.32,21,69.8,1016.12,0,0,0,0,0.030441
2023/02/24 02:54:00.002,n,180,9.72,6.84,10.8,21,69.9,1016.12,0,0,0,0,0.028687
2023/02/24 02:55:00.004,n,155,9,6.84,13.68,20.9,69.9,1016.22,0,0,0,0,0.030441
2023/02/24 02:56:00.005,n,166,5.04,2.52,8.64,20.9,70,1016.22,0,0,0,0,0.026093
2023/02/24 02:57:00.001,n,156,4.32,1.44,9.36,20.9,70.1,1016.22,0,0,0,0,0.027847
2023/02/24 02:58:00.012,n,193,14.76,10.8,18,20.9,70,1016.22,0,0,0,0,0.026093
2023/02/24 02:59:00.003,n,130,7.2,6.48,9,20.9,70,1016.22,0,0,0,0,0.02697
2023/02/24 03:00:00.018,n,172,10.440002,9.36,11.88,20.9,70,1016.22,0,0,0,0,0.027847
2023/02/24 03:01:00.001,n,130,6.12,5.04,7.2,20.9,70.1,1016.22,0,0,0,0,0.02697
2023/02/24 03:02:00.004,n,172,7.2,5.76,11.88,20.9,70.1,1016.22,0,0,0,0,0.02697
2023/02/24 03:03:00.001,n,209,11.16,9.72,12.96,20.9,70,1016.22,0,0,0,0,0.026093
2023/02/24 03:04:00.007,n,167,10.08,6.84,14.4,20.9,70.1,1016.22,0,0,0,0,0.027847
2023/02/24 03:05:00.003,n,184,11.16,6.84,13.68,20.9,70,1016.22,0,0,0,0,0.027847
2023/02/24 03:06:00.001,n,179,12.96,9.36,18,20.9,70.1,1016.12,0,0,0,0,0.028687
2023/02/24 03:07:00.008,n,186,9.72,7.92,12.6,20.9,70.1,1016.12,0,0,0,0,0.029564
2023/02/24 03:08:00.020,n,204,7.56,6.12,8.28,20.9,70.1,1016.12,0,0,0,0,0.02697
2023/02/24 03:09:00.013,n,136,2.88,2.16,3.6,20.9,70.2,1016.12,0,0,0,0,0.02697
2023/02/24 03:10:00.001,n,206,3.6,1.08,5.76,20.9,70.2,1016.12,0,0,0,0,0.025215
2023/02/24 03:11:00.002,n,149,0.72,0,1.44,20.9,70.2,1016.12,0,0,0,0,0.027847
2023/02/24 03:12:00.004,n,180,11.16,5.76,15.12,20.9,70.3,1016.02,0,0,0,0,0.027847
2023/02/24 03:13:00.003,n,188,14.04,10.8,17.28,20.9,70.2,1016.02,0,0,0,0,0.026093
2023/02/24 03:14:00.006,n,183,10.8,6.84,15.12,20.9,70.3,1016.02,0,0,0,0,0.026093
2023/02/24 03:15:00.008,n,176,7.56,5.4,14.04,20.9,70.4,1016.02,0,0,0,0,0.025215
2023/02/24 03:16:00.011,n,187,8.64,3.96,10.8,20.9,70.3,1016.02,0,0,0,0,0.031319
2023/02/24 03:17:00.014,n,171,20.16,17.64,24.119998,20.9,70.4,1016.02,0,0,0,0,0.026093
2023/02/24 03:18:00.015,n,213,7.92,4.68,10.8,20.9,70.6,1016.02,0.02,1.6,0,0,0.02697
2023/02/24 03:19:00.006,n,210,5.4,1.8,10.8,20.9,71.4,1016.02,0.03,0.1,0,0,0.02346
2023/02/24 03:20:00.002,n,169,9,7.2,10.08,20.9,71.5,1016.02,0.03,0,0,0,0.025215
2023/02/24 03:21:00.001,n,172,9.72,6.48,14.76,20.8,71.6,1016.02,0.03,0,0,0,0.02346
2023/02/24 03:22:00.003,n,174,16.56,13.32,19.44,20.8,72,1016.02,0.03,0,0,0,0.025215
2023/02/24 03:23:00.012,n,168,10.08,6.84,12.96,20.7,72.6,1016.02,0.03,0,0,0,0.02697
2023/02/24 03:24:00.001,n,163,9,5.76,14.04,20.6,72.8,1016.02,0.03,0,0,0,0.022621
2023/02/24 03:25:00.013,n,185,2.16,1.08,6.48,20.6,73.8,1015.92,0.03,0,0,0,0.02346
2023/02/24 03:26:00.008,n,156,7.56,5.04,8.28,20.5,73.8,1015.92,0.03,0,0,0,0.025215
2023/02/24 03:27:00.009,n,102,2.88,2.52,3.6,20.5,74.5,1015.92,0.03,0.1,0,0,0.025215
2023/02/24 03:28:00.002,n,155,2.16,1.08,2.88,20.4,75.1,1015.82,0.03,0.1,0,0,0.026093
2023/02/24 03:29:00.011,n,180,5.4,3.6,7.56,20.4,76,1015.82,0.03,0,0,0,0.021744
2023/02/24 03:30:00.007,n,201,4.32,3.24,6.84,20.4,76.3,1015.82,0.03,0,0,0,0.022621
2023/02/24 03:31:00.001,n,212,6.48,5.76,7.2,20.3,75.7,1015.82,0.03,0,0,0,0.021744
2023/02/24 03:32:00.004,n,204,9.72,8.64,10.8,20.3,75.9,1015.72,0.03,0,0,0,0.020866
2023/02/24 03:33:00.001,n,175,3.6,1.44,6.12,20.2,76.3,1015.72,0.03,0,0,0,0.019112
2023/02/24 03:34:00.011,n,198,6.84,4.68,9.72,20.2,76.7,1015.72,0.03,0,0,0,0.02346
2023/02/24 03:35:00.007,n,159,10.8,8.28,14.4,20.2,76.7,1015.72,0.03,0,0,0,0.019112
2023/02/24 03:36:00.014,n,141,3.6,2.88,4.32,20.1,77,1015.72,0.03,0,0,0,0.018272
2023/02/24 03:37:00.002,n,305,1.8,0.72,4.32,20.1,77.5,1015.82,0.03,0,0,0,0.016518
2023/02/24 03:38:00.001,n,163,13.68,10.8,14.76,20.1,77.1,1015.72,0.03,0,0,0,0.021744
2023/02/24 03:39:00.001,n,145,3.24,1.08,8.28,20.1,77.4,1015.82,0.03,0,0,0,0.027809
2023/02/24 03:40:00.009,n,171,4.32,3.96,5.4,20.1,77.8,1015.72,0.03,0,0,0,0.027809
2023/02/24 03:41:00.006,n,148,5.76,5.4,6.12,20.1,77.7,1015.72,0.03,0,0,0,0.024338
2023/02/24 03:42:00.015,n,245,4.68,4.32,5.04,20.1,78.1,1015.72,0.03,0,0,0,0.022621
2023/02/24 03:43:00.002,n,150,3.24,1.08,4.68,20.1,78,1015.82,0.03,0,0,0,0.021744
2023/02/24 03:44:00.010,n,180,6.48,2.52,8.64,20,78.1,1015.82,0.03,0,0,0,0.019989
2023/02/24 03:45:00.019,n,165,7.92,6.84,12.96,20,78.1,1015.82,0.03,0,0,0,0.021744
2023/02/24 03:46:00.003,n,214,3.24,2.88,3.6,20,78.2,1015.82,0.03,0,0,0,0.020828
2023/02/24 03:47:00.001,n,184,5.4,3.6,7.92,20,78.2,1015.82,0.03,0,0,0,0.019112
2023/02/24 03:48:00.006,n,154,3.6,2.16,5.04,20,78.9,1015.82,0.03,0,0,0,0.019989
2023/02/24 03:49:00.001,n,179,3.24,1.8,4.68,20,79,1015.82,0.03,0,0,0,0.021744
2023/02/24 03:50:00.001,n,220,4.68,3.96,6.12,20.1,78.8,1015.92,0.03,0,0,0,0.019989
2023/02/24 03:51:00.003,n,23,3.24,1.44,5.04,20,78.6,1015.92,0.03,0,0,0,0.019989
2023/02/24 03:52:00.005,n,227,1.44,0.72,3.24,20,78.7,1015.92,0.03,0,0,0,0.017395
2023/02/24 03:53:00.005,n,295,1.8,0.36,6.12,20,78.6,1015.92,0.03,0,0,0,0.02346
2023/02/24 03:54:00.005,n,176,10.8,5.4,14.4,20,78.5,1015.92,0.03,0,0,0,0.018234
2023/02/24 03:55:00.001,n,167,10.08,7.2,12.96,20,77.8,1015.92,0.03,0,0,0,0.021744
2023/02/24 03:56:00.003,n,190,7.2,3.6,9.72,20,78.1,1016.02,0.03,0,0,0,0.020828
2023/02/24 03:57:00.001,n,148,5.04,2.88,6.84,20,78,1015.92,0.03,0,0,0,0.025215
2023/02/24 03:58:00.001,n,166,3.96,1.08,7.2,20,77.9,1015.92,0.03,0,0,0,0.028687
2023/02/24 03:59:00.009,n,181,8.28,5.76,9,20.1,77.8,1015.92,0.03,0,0,0,0.030441
2023/02/24 04:00:00.001,n,190,6.48,4.32,9.36,20.1,77.9,1015.92,0.03,0,0,0,0.027847
2023/02/24 04:01:00.010,n,217,8.64,7.92,9,20.1,77.7,1015.92,0.03,0,0,0,0.028687
2023/02/24 04:02:00.018,n,180,6.84,3.96,10.08,20.1,77.7,1016.02,0.03,0,0,0,0.029564
2023/02/24 04:03:00.003,n,176,9.72,7.2,13.68,20.1,77.7,1016.02,0.03,0,0,0,0.030441
2023/02/24 04:04:00.458,n,175,9,5.4,11.16,20.1,77.6,1016.02,0.03,0,0,0,0.028687
2023/02/24 04:05:00.001,n,164,7.56,6.48,13.68,20.1,77.5,1016.02,0.03,0,0,0,0.027847
2023/02/24 04:06:00.001,n,214,4.68,3.96,7.56,20.1,77.5,1016.02,0.03,0,0,0,0.02697
2023/02/24 04:07:00.001,n,145,1.8,1.08,6.48,20.1,77.6,1015.92,0.03,0,0,0,0.024338
2023/02/24 04:08:00.011,n,283,5.76,4.68,6.84,20.1,78,1015.92,0.03,0,0,0,0.027847
2023/02/24 04:09:00.012,n,215,2.88,2.52,3.24,20.1,77.8,1015.92,0.03,0,0,0,0.024338
2023/02/24 04:10:00.003,n,188,3.96,2.52,6.12,20.1,78.4,1015.92,0.03,0,0,0,0.025215
2023/02/24 04:11:00.011,n,269,5.4,2.52,7.56,20.2,78.6,1015.92,0.03,0,0,0,0.024338
2023/02/24 04:12:00.011,n,342,1.44,0,5.76,20.2,79.2,1015.92,0.03,0,0,0,0.024338
2023/02/24 04:13:00.002,n,180,3.96,2.88,6.12,20.2,78.3,1016.02,0.03,0,0,0,0.022621
2023/02/24 04:14:00.002,n,186,2.88,1.08,5.04,20.2,78.2,1016.02,0.03,0,0,0,0.024338
2023/02/24 04:15:00.015,n,209,2.16,1.08,5.76,20.1,78.2,1016.02,0.03,0,0,0,0.025215
2023/02/24 04:16:00.009,n,108,1.8,0,5.76,20.1,78.3,1016.02,0.03,0,0,0,0.026054
2023/02/24 04:17:00.007,n,316,1.08,1.08,1.8,20.1,78.4,1016.02,0.03,0,0,0,0.02697
2023/02/24 04:18:00.015,n,157,2.88,0.72,6.12,20.1,78.4,1015.92,0.03,0,0,0,0.025215
2023/02/24 04:19:00.001,n,210,1.8,1.08,2.88,20.1,78.4,1015.92,0.03,0,0,0,0.024338
2023/02/24 04:20:00.013,n,247,2.52,2.16,2.52,20.1,78.4,1015.92,0.03,0,0,0,0.024338
2023/02/24 04:21:00.015,n,190,1.44,1.08,1.44,20.1,78.3,1015.82,0.03,0,0,0,0.02697
2023/02/24 04:22:00.001,n,163,3.24,1.8,5.76,20,78.1,1015.82,0.03,0,0,0,0.026054
2023/02/24 04:23:00.001,n,206,2.16,1.8,4.68,20,78,1015.82,0.03,0,0,0,0.024338
2023/02/24 04:24:00.001,n,228,3.96,2.16,5.4,20,77.8,1015.82,0.03,0,0,0,0.020866
2023/02/24 04:25:00.002,n,263,4.32,3.96,5.04,20,78.5,1015.82,0.03,0,0,0,0.019989
2023/02/24 04:26:00.002,n,226,3.24,2.88,3.6,20.1,78.8,1015.82,0.03,0,0,0,0.017395
2023/02/24 04:27:00.010,n,269,4.68,4.32,5.04,20.1,77.8,1015.82,0.03,0,0,0,0.025253
2023/02/24 04:28:00.006,n,197,2.88,2.52,3.24,20,77.9,1015.72,0.03,0,0,0,0.023499
2023/02/24 04:29:00.002,n,190,3.6,3.24,3.96,20.1,78.4,1015.72,0.03,0,0,0,0.020866
2023/02/24 04:30:00.013,n,274,2.52,1.8,3.96,20.1,78.3,1015.72,0.03,0,0,0,0.018272
2023/02/24 04:31:00.001,n,213,2.88,1.44,5.4,20.1,78.1,1015.72,0.03,0,0,0,0.017433
2023/02/24 04:32:00.004,n,264,1.8,0.36,5.76,20.1,78.6,1015.72,0.03,0,0,0,0.016518
2023/02/24 04:33:00.001,n,256,6.48,5.4,8.28,20.1,77.5,1015.72,0.03,0,0,0,0.020866
2023/02/24 04:34:00.002,n,272,5.04,4.68,6.12,20.1,77.6,1015.72,0.03,0,0,0,0.02697
2023/02/24 04:35:00.007,n,189,4.68,3.6,6.84,20,77.6,1015.82,0.03,0,0,0,0.021744
2023/02/24 04:36:00.002,n,174,6.48,3.24,8.28,20,77.5,1015.82,0.03,0,0,0,0.02346
2023/02/24 04:37:00.002,n,275,1.44,0,4.68,20,78.1,1015.72,0.03,0,0,0,0.019989
2023/02/24 04:38:00.015,n,191,2.88,1.44,4.32,20.1,77.9,1015.72,0.03,0,0,0,0.016518
2023/02/24 04:39:00.010,n,174,3.6,1.44,6.12,20.1,78,1015.72,0.03,0,0,0,0.028687
2023/02/24 04:40:00.002,n,192,2.52,1.44,5.04,20.1,77.8,1015.72,0.03,0,0,0,0.029564
2023/02/24 04:41:00.001,n,158,2.52,1.08,6.12,20.1,77.7,1015.72,0.03,0,0,0,0.030441
2023/02/24 04:42:00.002,n,164,0.36,0,0.72,20.1,78,1015.82,0.03,0,0,0,0.026093
2023/02/24 04:43:00.003,n,304,2.16,1.44,2.88,20.1,78.3,1015.82,0.03,0,0,0,0.025253
2023/02/24 04:44:00.001,n,276,2.16,1.08,3.24,20.1,77.8,1015.82,0.03,0,0,0,0.022621
2023/02/24 04:45:00.012,n,179,9.72,6.84,13.32,20,77.2,1015.92,0.03,0,0,0,0.020866
2023/02/24 04:46:00.013,n,233,7.2,5.04,9.72,20,77.1,1015.92,0.03,0,0,0,0.02346
2023/02/24 04:47:00.006,n,306,3.24,1.44,8.28,20,77.5,1015.92,0.03,0,0,0,0.018272